| time (UTC) | temp F | wind direction | speed MPH | gust MPH | rain 1hr in | rain 24hr in | rain mn in | humidity % | barometer mb |
| 20260505211551 | 76 | 315 | 5.0 | 13.0 | 0.00 | 0.00 | 0.00 | 38 | 1012.6 |
| 20260505210050 | 76 | 37 | 5.0 | 13.0 | 0.00 | 0.00 | 0.00 | 37 | 1012.5 |
| 20260505204558 | 76 | 18 | 5.0 | 14.0 | 0.00 | 0.00 | 0.00 | 37 | 1012.7 |
| 20260505203057 | 74 | 344 | 5.0 | 12.0 | 0.00 | 0.00 | 0.00 | 41 | 1012.6 |
| 20260505201553 | 75 | 335 | 4.0 | 10.0 | 0.00 | 0.00 | 0.00 | 42 | 1012.7 |
| 20260505200054 | 74 | 323 | 4.0 | 10.0 | 0.00 | 0.00 | 0.00 | 43 | 1012.7 |
| 20260505194603 | 74 | 82 | 3.0 | 10.0 | 0.00 | 0.00 | 0.00 | 43 | 1012.8 |
| 20260505193049 | 73 | 74 | 2.0 | 5.0 | 0.00 | 0.00 | 0.00 | 44 | 1012.7 |
| 20260505191550 | 72 | 227 | 1.0 | 8.0 | 0.00 | 0.00 | 0.00 | 46 | 1012.8 |
| 20260505190050 | 70 | 338 | 4.0 | 10.0 | 0.00 | 0.00 | 0.00 | 49 | 1012.9 |
| 20260505184555 | 70 | 277 | 4.0 | 9.0 | 0.00 | 0.00 | 0.00 | 49 | 1013.1 |
| 20260505183058 | 69 | 297 | 6.0 | 10.0 | 0.00 | 0.00 | 0.00 | 53 | 1013.1 |
| 20260505181549 | 68 | 346 | 5.0 | 11.0 | 0.00 | 0.00 | 0.00 | 52 | 1013.1 |
| 20260505180050 | 68 | 297 | 4.0 | 10.0 | 0.00 | 0.00 | 0.00 | 56 | 1012.9 |
| 20260505174551 | 67 | 297 | 4.0 | 9.0 | 0.00 | 0.00 | 0.00 | 55 | 1012.9 |
| 20260505173054 | 67 | 263 | 5.0 | 13.0 | 0.00 | 0.00 | 0.00 | 56 | 1012.9 |
| 20260505171546 | 66 | 284 | 4.0 | 12.0 | 0.00 | 0.00 | 0.00 | 57 | 1012.8 |
| 20260505170047 | 66 | 191 | 4.0 | 10.0 | 0.00 | 0.00 | 0.00 | 60 | 1012.6 |
| 20260505164601 | 64 | 219 | 5.0 | 11.0 | 0.00 | 0.00 | 0.00 | 61 | 1012.7 |
| 20260505163100 | 64 | 254 | 4.0 | 11.0 | 0.00 | 0.00 | 0.00 | 62 | 1012.7 |
| 20260505161555 | 63 | 220 | 6.0 | 10.0 | 0.00 | 0.00 | 0.00 | 64 | 1012.8 |
| 20260505153108 | 61 | 190 | 4.0 | 7.0 | 0.00 | 0.00 | 0.00 | 67 | 1012.4 |
| 20260505151600 | 61 | 240 | 4.0 | 7.0 | 0.00 | 0.00 | 0.00 | 67 | 1012.3 |
| 20260505124552 | 57 | 253 | 1.0 | 6.0 | 0.00 | 0.00 | 0.00 | 73 | 1011.1 |
| 20260505123050 | 57 | 232 | 4.0 | 8.0 | 0.00 | 0.00 | 0.00 | 72 | 1010.9 |
| 20260505121550 | 57 | 252 | 3.0 | 5.0 | 0.00 | 0.00 | 0.00 | 72 | 1011.0 |
| 20260505120054 | 58 | 252 | 3.0 | 7.0 | 0.00 | 0.00 | 0.00 | 72 | 1010.8 |
| 20260505114552 | 58 | 221 | 5.0 | 9.0 | 0.00 | 0.00 | 0.00 | 71 | 1010.7 |
| 20260505113053 | 59 | 219 | 4.0 | 6.0 | 0.00 | 0.00 | 0.00 | 70 | 1010.8 |
| 20260505111556 | 59 | 196 | 4.0 | 8.0 | 0.00 | 0.00 | 0.00 | 70 | 1010.7 |
| 20260505101550 | 60 | 213 | 3.0 | 8.0 | 0.00 | 0.00 | 0.00 | 67 | 1010.3 |
| 20260505100052 | 60 | 213 | 6.0 | 8.0 | 0.00 | 0.00 | 0.00 | 67 | 1010.1 |
| 20260505094551 | 60 | 208 | 6.0 | 8.0 | 0.00 | 0.00 | 0.00 | 67 | 1010.2 |
| 20260505093050 | 60 | 194 | 3.0 | 8.0 | 0.00 | 0.00 | 0.00 | 67 | 1010.2 |
| 20260505091558 | 60 | 196 | 5.0 | 9.0 | 0.00 | 0.00 | 0.00 | 66 | 1010.0 |
| 20260505090059 | 61 | 232 | 7.0 | 10.0 | 0.00 | 0.00 | 0.00 | 67 | 1009.9 |
| 20260505084551 | 60 | 248 | 4.0 | 7.0 | 0.00 | 0.00 | 0.00 | 68 | 1010.1 |
| 20260505083053 | 61 | 232 | 3.0 | 13.0 | 0.00 | 0.00 | 0.00 | 66 | 1010.1 |
| 20260505081601 | 62 | 209 | 9.0 | 12.0 | 0.00 | 0.00 | 0.00 | 65 | 1010.0 |
| 20260505080056 | 62 | 257 | 7.0 | 17.0 | 0.00 | 0.00 | 0.00 | 64 | 1010.0 |
| 20260505074607 | 62 | 247 | 7.0 | 11.0 | 0.00 | 0.00 | 0.00 | 66 | 1009.9 |
| 20260505073055 | 62 | 242 | 7.0 | 13.0 | 0.00 | 0.00 | 0.00 | 64 | 1009.9 |
| 20260505071549 | 62 | 224 | 4.0 | 7.0 | 0.00 | 0.00 | 0.00 | 63 | 1009.8 |
| 20260505070052 | 63 | 250 | 5.0 | 9.0 | 0.00 | 0.00 | 0.00 | 62 | 1009.7 |
| 20260505064556 | 63 | 237 | 7.0 | 14.0 | 0.00 | 0.00 | 0.00 | 62 | 1009.6 |
| 20260505063059 | 63 | 259 | 9.0 | 13.0 | 0.00 | 0.00 | 0.00 | 61 | 1009.6 |
| 20260505061617 | 63 | 250 | 7.0 | 14.0 | 0.00 | 0.00 | 0.00 | 60 | 1009.5 |
| 20260505060055 | 64 | 271 | 7.0 | 11.0 | 0.00 | 0.00 | 0.00 | 58 | 1009.3 |
| 20260505054603 | 65 | 263 | 5.0 | 12.0 | 0.00 | 0.00 | 0.00 | 56 | 1009.5 |
| 20260505053052 | 66 | 151 | 7.0 | 16.0 | 0.00 | 0.00 | 0.00 | 55 | 1009.4 |
| 20260505051549 | 66 | 211 | 6.0 | 18.0 | 0.00 | 0.00 | 0.00 | 54 | 1009.3 |
| 20260505041553 | 68 | 258 | 12.0 | 18.0 | 0.00 | 0.00 | 0.00 | 52 | 1008.7 |
| 20260505040058 | 69 | 284 | 13.0 | 20.0 | 0.00 | 0.00 | 0.00 | 50 | 1008.4 |
| 20260505034550 | 69 | 309 | 9.0 | 20.0 | 0.00 | 0.00 | 0.00 | 50 | 1008.6 |
| 20260505033053 | 69 | 293 | 7.0 | 12.0 | 0.00 | 0.00 | 0.00 | 49 | 1008.3 |
| 20260505031549 | 69 | 281 | 4.0 | 10.0 | 0.00 | 0.00 | 0.00 | 49 | 1008.3 |
| 20260505030052 | 71 | 294 | 6.0 | 12.0 | 0.00 | 0.00 | 0.00 | 47 | 1008.3 |
| 20260505024605 | 72 | 286 | 9.0 | 14.0 | 0.00 | 0.00 | 0.00 | 44 | 1008.2 |
| 20260505023051 | 73 | 259 | 13.0 | 19.0 | 0.00 | 0.00 | 0.00 | 41 | 1008.1 |
| 20260505021602 | 73 | 278 | 9.0 | 19.0 | 0.00 | 0.00 | 0.00 | 43 | 1008.2 |
| 20260505020049 | 74 | 300 | 9.0 | 15.0 | 0.00 | 0.00 | 0.00 | 41 | 1008.2 |
| 20260505014551 | 75 | 304 | 12.0 | 19.0 | 0.00 | 0.00 | 0.00 | 41 | 1008.1 |
| 20260505013050 | 76 | 295 | 11.0 | 16.0 | 0.00 | 0.00 | 0.00 | 38 | 1008.0 |
| 20260505011554 | 77 | 296 | 11.0 | 17.0 | 0.00 | 0.00 | 0.00 | 36 | 1007.9 |
| 20260505010049 | 78 | 291 | 11.0 | 17.0 | 0.00 | 0.00 | 0.00 | 35 | 1007.9 |
| 20260505004549 | 78 | 323 | 10.0 | 18.0 | 0.00 | 0.00 | 0.00 | 32 | 1008.0 |
| 20260505003051 | 79 | 303 | 9.0 | 16.0 | 0.00 | 0.00 | 0.00 | 33 | 1008.1 |
| 20260505001546 | 80 | 344 | 4.0 | 10.0 | 0.00 | 0.00 | 0.00 | 29 | 1008.0 |
| 20260505000046 | 80 | 301 | 3.0 | 12.0 | 0.00 | 0.00 | 0.00 | 27 | 1008.2 |
| 20260504234548 | 80 | 306 | 7.0 | 11.0 | 0.00 | 0.00 | 0.00 | 25 | 1008.3 |
| 20260504233058 | 80 | 255 | 6.0 | 11.0 | 0.00 | 0.00 | 0.00 | 25 | 1008.3 |
| 20260504231550 | 80 | 270 | 6.0 | 12.0 | 0.00 | 0.00 | 0.00 | 26 | 1008.5 |
| 20260504230049 | 80 | 51 | 6.0 | 13.0 | 0.00 | 0.00 | 0.00 | 25 | 1008.4 |
| 20260504224549 | 80 | 329 | 2.0 | 9.0 | 0.00 | 0.00 | 0.00 | 26 | 1008.7 |
| 20260504223053 | 80 | 348 | 4.0 | 13.0 | 0.00 | 0.00 | 0.00 | 26 | 1008.9 |
| 20260504221558 | 80 | 5 | 6.0 | 11.0 | 0.00 | 0.00 | 0.00 | 26 | 1008.9 |
| 20260504220113 | 80 | 339 | 9.0 | 14.0 | 0.00 | 0.00 | 0.00 | 26 | 1009.0 |
| 20260504214548 | 79 | 52 | 5.0 | 14.0 | 0.00 | 0.00 | 0.00 | 26 | 1009.1 |
| 20260504213102 | 79 | 40 | 4.0 | 13.0 | 0.00 | 0.00 | 0.00 | 27 | 1009.2 |